This is the latest recevied weather packets stored in our database for station/object 4S6DRJ-13. If no packets are shown the sender has not sent any weather packets the latest 10 day(s).
| Time | Temp. | Humidity | Pressure | Rain* | Wind** | Luminosity | Snow |
|---|---|---|---|---|---|---|---|
| 1787943140 | 27.78° C | 86% | 1010.4 hPa | 0 mm | 0.89 m/s, 281° | 0 W/m² | - |
| 1787943079 | 27.78° C | 86% | 1010.3 hPa | 0 mm | 0.45 m/s, 254° | 0 W/m² | - |
| 1787943019 | 27.78° C | 86% | 1010.4 hPa | 0 mm | 1.79 m/s, 245° | 0 W/m² | - |
| 1787942957 | 27.78° C | 86% | 1010.5 hPa | 0 mm | 1.79 m/s, 260° | 0 W/m² | - |
| 1787942897 | 27.78° C | 86% | 1010.4 hPa | 0 mm | 1.34 m/s, 189° | 0 W/m² | - |
| 1787942835 | 27.78° C | 86% | 1010.4 hPa | 0 mm | 1.34 m/s, 270° | 0 W/m² | - |
| 1787942774 | 27.78° C | 86% | 1010.5 hPa | 0 mm | 1.79 m/s, 181° | 0 W/m² | - |
| 1787942713 | 27.78° C | 86% | 1010.6 hPa | 0 mm | 1.34 m/s, 177° | 0 W/m² | - |
| 1787942652 | 27.78° C | 86% | 1010.6 hPa | 0 mm | 0.89 m/s, 259° | 0 W/m² | - |
| 1787942592 | 27.78° C | 86% | 1010.8 hPa | 0 mm | 1.79 m/s, 213° | 0 W/m² | - |
| 1787942530 | 27.78° C | 86% | 1010.7 hPa | 0 mm | 0.89 m/s, 279° | 0 W/m² | - |
| 1787942470 | 27.78° C | 86% | 1010.7 hPa | 0 mm | 0.45 m/s, 222° | 0 W/m² | - |
| 1787942409 | 27.78° C | 86% | 1010.7 hPa | 0 mm | 0.89 m/s, 224° | 0 W/m² | - |
| 1787942348 | 27.78° C | 86% | 1010.6 hPa | 0 mm | 1.34 m/s, 96° | 0 W/m² | - |
| 1787942287 | 27.78° C | 86% | 1010.5 hPa | 0 mm | 1.34 m/s, 211° | 0 W/m² | - |
| 1787942225 | 27.78° C | 86% | 1010.6 hPa | 0 mm | 0.45 m/s, 209° | 0 W/m² | - |
| 1787942165 | 27.78° C | 86% | 1010.8 hPa | 0 mm | 0.89 m/s, 217° | 0 W/m² | - |
| 1787942104 | 27.78° C | 86% | 1010.8 hPa | 0 mm | 0.45 m/s, 216° | 0 W/m² | - |
| 1787942043 | 27.78° C | 86% | 1010.8 hPa | 0 mm | 0 m/s | 0 W/m² | - |
| 1787941981 | 27.78° C | 86% | 1010.7 hPa | 0 mm | 0 m/s | 0 W/m² | - |
| 1787941920 | 27.78° C | 86% | 1010.6 hPa | 0 mm | 0.45 m/s, 208° | 0 W/m² | - |
| 1787941859 | 27.78° C | 86% | 1010.7 hPa | 0 mm | 0.89 m/s, 226° | 0 W/m² | - |
| 1787941798 | 27.78° C | 86% | 1010.9 hPa | 0 mm | 0.89 m/s, 224° | 0 W/m² | - |
| 1787941737 | 27.78° C | 86% | 1010.9 hPa | 0 mm | 1.34 m/s, 223° | 0 W/m² | - |
| 1787941676 | 27.78° C | 86% | 1010.7 hPa | 0 mm | 0.45 m/s, 175° | 0 W/m² | - |
* Rain latest hour (hover to see other rain measurements)
** Current wind speed in m/s (hover to see current wind gust speed)